Location: Boissi�res
(45.2500°N, 2.3667°E)
Time: 04:56:58
(UTC+00:00)

Gbstr 26 Del rocket - Pass Details

Date: 03 March 2021
Orbit: 492 x 1264 km, 51.8° (Epoch: 13 April)

Event Time Altitude Azimuth Distance (km) Brightness Sun altitude
Rises 18:06:24 0° 264° (W) 2,706 9.4 -5.3°
Reaches altitude 10° 18:08:32 10° 271° (W) 1,884 7.4 -5.7°
Maximum altitude 18:12:39 47° 346° (NNW) 866 3.9 -6.4°
Drops below altitude 10° 18:17:39 10° 60° (ENE) 2,285 5.4 -7.3°
Enters shadow 18:18:38 - 63° (ENE) 2,654 5.7 -7.5°
